Location: G�ndlingen
(48.0142°N, 7.6396°E)
Time: 17:27:16
(UTC+00:00)

Cosmos 2221 - Pass Details

Date: 05 July 2020
Orbit: 592 x 617 km, 82.5° (Epoch: 12 August)

Event Time Altitude Azimuth Distance (km) Brightness Sun altitude
Rises 20:53:10 0° 358° (N) 2,899 7.0 -10.6°
Reaches altitude 10° 20:55:35 10° 8° (N) 1,986 5.9 -10.9°
Maximum altitude 20:59:35 33° 73° (ENE) 1,037 3.5 -11.3°
Enters shadow 21:02:30 16° 130° (SE) 1,609 4.1 -11.6°
